SCP
0 0 0 0 0 0 0 0 0 0 0 0 0 0 0 0 0 0 0 0 0 0 0 0 0 0 0 0 0 0 0 -0 0 0 0 0 0 0
0 0 0 0 0 0 0 0 0 0 0 0 0 0 0 0 0 0 0 0 0 0 0 0 0 0 0 0 0 0 0 0 0 0 -0 -0 -0 -0
0 0 0 0 0 0 0 0 0 0 0 0 0 0 0 0 0 0 0 0 0 0 0 0 0 0 0 0 0 0 0 -0 -0 -0 -0 -0 -0 -0
0 0 0 0 0 0 0 0 0 0 0 0 0 0 0 0 0 0 0 0 0 0 0 0 0 0 0 0 0 0 0 0 0 0 -0 0 -0 -0
0 0 0 0 0 0 0 0 0 0 0 0 0 0 0 0 0 0 0 0 -0 0 0 0 0 0 0 0 0 0 0 0 0 0 0 0 0 0
0 0 0 -0 -0 -0 0 0 0 0 0 0 0 0 -0 0 -0 0 0 0 0 0 0 0 0 0 0 0 0 0 0 0 0 0 0 0 0 0
0 0 0 0 0 0 -0 -0 0 0 -0 0 0 -0 0 0 0 0 0 0 0 0 0 0 0 0 0 0 0 0 0 0 0 0 0 0 0 0
0 0 0 -0 0 -0 -0 0 0 0 0 0 0 0 0 0 0 0 0 0 0 0 0 0 0 0 0 0 0 0 0 0 0 0 0 0 0 0
-0 -0 0 0 0 0 -0 -0 -0 0 0 0 0 0 0 0 0 0 0 0 0 0 0 0 0 0 0 0 0 0 0 0 0 0 0 0 0 0
-0 -0 -0 -0 0 -0 0 0 0 0 0 0 0 0 0 0 0 0 0 0 0 0 0 0 0 0 0 0 0 0 0 0 0 0 0 0 0 0
-0 -0 -0 -0 -0 -0 0 0 0 0 0 0 0 0 0 0 0 0 0 0 0 0 0 0 0 0 0 0 0 0 0 0 0 0 0 0 0 0
0 0 -0 -0 -0 -0 0 0 0 0 0 0 0 0 0 0 0 0 0 0 0 0 0 0 0 0 0 0 0 0 0 0 0 0 0 0 0 0
-0 0 0 -0 -0 0 0 0 0 0 0 0 0 0 0 0 0 0 0 0 0 0 0 0 0 0 0 0 0 0 0 0 0 0 0 0 0 0
-0 0 0 -0 0 0 0 0 0 0 0 0 0 0 0 0 0 0 0 0 0 0 0 0 0 0 0 0 0 0 0 0 0 0 0 0 0 0
0 0 0 0 0 0 0 0 0 0 0 0 0 0 0 0 0 0 0 0 0 0 0 0 0 0 0 0 0 0 0 0 0 0 0 0 0 0
0 0 0 0 0 0 0 0 0 0 0 0 0 0 0 0 0 0 0 0 0 0 0 0 0 0 0 0 0 0 0 0 0 0 0 0 0 0
0 0 0 0 0 0 0 0 0 0 0 0 0 0 0 0 0 0 0 0 0 0 0 0 0 0 0 0 0 0 0 0 0 0 0 0 0 0
0 0 0 0 0 0 0 0 0 0 0 0 0 0 0 0 0 0 0 0 0 0 0 0 0 0 0 0 0 0 0 0 0 0 0 0 0 0
0 0 0 0 0 0 0 0 0 0 0 0 0 0 0 0 0 0 0 0 0 0 0 0 0 0 0 0 0 0 0 0 0 0 0 0 0 0
0 0 0 -0 0 0 0 0 0 0 0 0 0 0 0 0 0 0 0 0 0 0 0 0 0 0 0 0 0 0 0 0 0 0 0 0 0 0
0 -0 -0 0 0 0 0 0 0 0 0 0 0 0 0 0 0 0 0 0 0 0 0 0 0 0 0 0 0 0 0 0 0 0 0 0 0 0
0 0 0 0 0 0 0 0 0 0 0 0 0 0 0 0 0 0 0 0 0 0 0 0 0 0 0 0 0 0 0 0 0 0 0 0 0 0
0 0 0 0 0 0 0 0 0 0 0 0 0 0 0 0 0 0 0 0 0 0 0 0 0 0 0 0 0 0 0 0 0 0 0 0 0 0
Wind_Speed_500mb
23 21 19 20 19 19 17 12 5 11 11 9 4 12 13 13 15 18 21 26 29 31 30 27 29 29 27 26 27 27 21 25 35 24 24 22 34 55
19 20 17 18 18 17 15 12 9 6 9 10 10 11 13 14 15 18 21 24 27 28 32 30 28 26 26 25 23 22 22 20 22 21 20 20 30 38
20 22 22 22 17 14 13 11 10 8 7 12 10 8 13 16 18 21 26 31 33 33 33 31 29 26 25 23 21 23 22 21 20 17 21 23 25 29
27 26 32 28 24 22 19 19 15 12 8 11 6 7 12 21 24 28 31 30 26 26 26 26 27 28 28 27 25 23 18 18 15 15 17 20 23 22
28 30 35 35 36 32 26 21 21 17 13 10 10 13 17 18 16 19 25 27 23 21 25 24 22 21 21 24 26 27 26 24 22 21 22 26 26 25
26 26 29 33 35 34 34 36 30 23 19 15 18 18 21 25 25 28 32 32 27 28 26 24 22 26 27 26 24 21 20 22 27 30 32 34 34 31
27 26 27 26 27 28 27 28 27 31 31 22 23 24 27 28 34 35 33 34 32 40 27 27 25 24 22 18 19 19 21 22 22 23 25 25 27 30
33 27 24 24 26 26 27 29 27 28 32 33 33 32 31 28 30 36 36 38 41 38 24 29 30 25 20 23 23 21 19 20 21 24 28 30 29 29
36 39 38 32 26 22 19 21 25 26 30 32 34 33 30 32 38 33 36 33 33 36 36 31 29 24 18 21 35 31 25 25 21 19 19 21 19 25
30 31 32 30 30 28 15 14 20 23 24 28 31 32 32 31 32 35 37 32 31 31 40 42 43 35 13 22 31 30 31 28 24 26 28 32 30 33
22 22 24 26 25 27 17 20 20 20 22 23 27 28 28 28 28 30 35 37 36 29 30 41 44 39 20 30 40 38 39 29 24 28 28 28 31 28
9 18 16 24 19 24 20 21 21 27 25 22 23 22 21 24 30 34 38 35 30 25 31 41 38 39 29 35 42 42 45 38 22 23 23 22 21 16
12 11 11 17 16 21 20 19 23 31 25 24 22 24 19 21 26 35 40 36 33 26 31 38 34 31 28 40 41 43 45 33 32 23 16 22 23 23
12 9 7 10 12 17 19 23 24 28 26 27 22 30 27 26 25 34 41 34 29 34 36 33 32 24 29 38 44 50 35 24 32 27 21 22 21 20
9 6 7 6 12 14 19 20 23 25 28 28 23 27 29 28 25 27 32 34 32 36 41 32 30 22 18 27 37 40 42 23 36 30 27 27 22 19
6 3 4 8 7 13 16 21 22 22 24 27 27 23 28 26 22 24 29 34 35 37 41 37 33 31 23 25 27 33 36 31 36 32 26 28 28 27
7 1 5 5 8 11 17 22 20 20 20 25 28 24 26 25 23 26 27 29 33 36 39 35 34 32 29 26 27 29 33 33 35 38 32 32 22 24
1 5 6 4 9 12 16 20 18 21 20 21 24 24 27 30 27 26 25 28 31 32 38 35 34 34 31 30 37 39 37 36 35 35 37 38 31 26
4 4 5 9 7 14 19 30 18 13 19 29 24 18 25 30 31 26 27 32 34 29 33 38 38 37 38 41 36 42 42 39 40 38 37 39 39 36
9 6 6 8 12 19 25 25 18 18 21 17 13 13 21 25 30 30 33 35 37 37 43 36 35 42 34 32 37 44 37 34 37 42 45 41 29 36
3 9 10 15 17 19 27 17 19 18 19 19 8 10 16 20 25 28 26 29 35 39 45 46 34 39 30 27 35 38 36 30 37 48 46 39 32 31
2 11 17 16 13 22 22 16 19 22 18 14 7 12 17 26 30 26 25 30 34 37 48 45 35 31 29 26 34 38 35 34 37 38 32 30 31 29
9 12 9 13 19 21 15 18 22 19 11 9 4 12 18 18 29 28 30 28 27 38 47 52 44 37 34 30 35 37 39 42 37 47 45 27 21 22
Wind_Direction_500mb
36 31 34 46 45 49 51 56 152 138 112 88 58 17 20 15 11 13 10 3 356 354 353 350 349 351 353 5 13 12 346 279 258 281 270 260 230 223
25 17 28 42 38 40 43 44 62 148 121 90 72 46 18 2 357 353 351 352 348 346 346 350 353 351 346 349 356 1 4 3 6 1 349 305 287 272
41 36 42 35 25 27 36 53 63 62 74 104 95 40 352 344 339 339 334 331 326 326 326 326 327 329 330 333 336 337 340 342 336 338 348 353 345 334
52 49 52 43 48 45 43 53 59 81 79 112 98 23 353 346 337 326 328 331 328 330 332 324 309 305 306 308 310 313 312 318 320 313 311 314 316 316
59 58 59 52 53 52 57 64 64 68 65 52 31 10 352 350 5 20 19 15 11 352 339 335 328 321 312 304 295 288 285 287 287 292 292 293 286 284
64 62 59 51 51 54 61 63 60 57 50 45 47 46 43 38 32 29 27 25 27 17 5 0 339 332 326 321 316 311 304 290 283 286 287 286 285 284
66 61 56 50 51 54 56 53 51 49 47 54 50 42 36 29 26 20 16 17 15 18 23 20 3 3 354 337 327 309 302 304 300 298 299 295 289 281
59 57 59 62 55 60 58 51 48 47 49 47 42 36 26 21 17 10 10 12 17 8 19 21 25 23 27 26 12 356 337 322 311 292 288 296 299 297
57 59 60 61 56 54 52 49 41 36 36 35 29 25 23 23 15 18 15 15 12 1 6 17 23 23 8 1 352 347 327 318 317 319 313 302 298 309
51 53 48 44 42 39 32 44 38 29 25 20 12 16 16 12 11 14 11 13 9 8 9 5 359 18 17 351 353 350 341 329 314 308 305 301 299 302
38 33 41 28 24 16 34 54 35 25 20 14 6 4 3 6 11 9 7 3 8 7 359 354 358 349 4 8 353 347 348 328 301 305 301 302 292 288
353 14 18 15 22 26 47 37 25 12 12 9 7 0 359 4 8 6 1 2 357 359 347 342 355 353 348 355 5 356 357 357 338 315 318 321 319 311
3 13 18 16 30 21 26 23 17 10 13 12 14 18 15 17 23 17 9 5 2 5 343 340 347 351 343 337 350 354 354 359 3 355 339 317 312 310
351 356 7 15 18 15 20 14 3 4 7 11 12 17 26 27 24 17 10 10 15 4 356 344 339 333 329 338 346 345 0 1 1 1 351 344 345 344
337 54 37 31 353 1 0 1 1 2 9 11 13 15 12 14 17 23 27 26 17 10 1 5 358 350 344 338 340 355 1 9 3 359 354 346 337 337
143 41 2 317 340 350 355 358 357 4 1 13 9 2 7 13 16 13 15 17 21 25 19 23 18 19 4 351 354 357 3 1 3 360 353 345 336 329
134 212 343 339 343 339 347 354 355 357 355 358 2 7 9 8 5 6 6 11 13 13 19 27 25 23 20 21 16 7 5 6 360 358 359 357 355 354
10 306 318 351 356 3 352 341 340 346 349 355 354 3 5 4 2 359 8 3 357 2 3 1 4 10 18 25 17 9 7 0 360 355 351 352 354 334
308 20 77 353 324 322 333 342 341 337 329 328 331 352 358 4 11 11 7 7 4 4 7 4 358 354 357 356 4 1 346 351 351 357 353 349 343 348
262 186 354 328 302 320 340 346 3 344 335 347 357 359 353 3 10 12 10 10 8 11 9 360 352 355 343 344 348 8 5 355 347 343 339 334 327 341
178 201 291 316 307 329 340 337 342 345 342 351 10 354 353 0 4 358 9 13 9 7 6 4 358 355 353 352 356 357 4 5 7 357 345 347 344 341
279 299 298 302 324 329 333 335 333 332 330 334 344 349 354 350 349 353 352 351 355 1 360 1 358 351 1 359 359 358 360 356 350 354 360 346 334 322
321 331 336 328 322 324 325 326 329 333 338 334 308 338 339 341 348 358 356 356 359 358 7 11 8 3 360 6 3 2 2 3 8 14 17 16 4 345
Wind_Speed_850mb
23 21 19 20 19 19 17 12 5 11 11 9 4 12 13 13 15 18 21 26 29 31 30 27 29 29 27 26 27 27 21 25 35 24 24 22 34 55
19 20 17 18 18 17 15 12 9 6 9 10 10 11 13 14 15 18 21 24 27 28 32 30 28 26 26 25 23 22 22 20 22 21 20 20 30 38
20 22 22 22 17 14 13 11 10 8 7 12 10 8 13 16 18 21 26 31 33 33 33 31 29 26 25 23 21 23 22 21 20 17 21 23 25 29
27 26 32 28 24 22 19 19 15 12 8 11 6 7 12 21 24 28 31 30 26 26 26 26 27 28 28 27 25 23 18 18 15 15 17 20 23 22
28 30 35 35 36 32 26 21 21 17 13 10 10 13 17 18 16 19 25 27 23 21 25 24 22 21 21 24 26 27 26 24 22 21 22 26 26 25
26 26 29 33 35 34 34 36 30 23 19 15 18 18 21 25 25 28 32 32 27 28 26 24 22 26 27 26 24 21 20 22 27 30 32 34 34 31
27 26 27 26 27 28 27 28 27 31 31 22 23 24 27 28 34 35 33 34 32 40 27 27 25 24 22 18 19 19 21 22 22 23 25 25 27 30
33 27 24 24 26 26 27 29 27 28 32 33 33 32 31 28 30 36 36 38 41 38 24 29 30 25 20 23 23 21 19 20 21 24 28 30 29 29
36 39 38 32 26 22 19 21 25 26 30 32 34 33 30 32 38 33 36 33 33 36 36 31 29 24 18 21 35 31 25 25 21 19 19 21 19 25
30 31 32 30 30 28 15 14 20 23 24 28 31 32 32 31 32 35 37 32 31 31 40 42 43 35 13 22 31 30 31 28 24 26 28 32 30 33
22 22 24 26 25 27 17 20 20 20 22 23 27 28 28 28 28 30 35 37 36 29 30 41 44 39 20 30 40 38 39 29 24 28 28 28 31 28
9 18 16 24 19 24 20 21 21 27 25 22 23 22 21 24 30 34 38 35 30 25 31 41 38 39 29 35 42 42 45 38 22 23 23 22 21 16
12 11 11 17 16 21 20 19 23 31 25 24 22 24 19 21 26 35 40 36 33 26 31 38 34 31 28 40 41 43 45 33 32 23 16 22 23 23
12 9 7 10 12 17 19 23 24 28 26 27 22 30 27 26 25 34 41 34 29 34 36 33 32 24 29 38 44 50 35 24 32 27 21 22 21 20
9 6 7 6 12 14 19 20 23 25 28 28 23 27 29 28 25 27 32 34 32 36 41 32 30 22 18 27 37 40 42 23 36 30 27 27 22 19
6 3 4 8 7 13 16 21 22 22 24 27 27 23 28 26 22 24 29 34 35 37 41 37 33 31 23 25 27 33 36 31 36 32 26 28 28 27
7 1 5 5 8 11 17 22 20 20 20 25 28 24 26 25 23 26 27 29 33 36 39 35 34 32 29 26 27 29 33 33 35 38 32 32 22 24
1 5 6 4 9 12 16 20 18 21 20 21 24 24 27 30 27 26 25 28 31 32 38 35 34 34 31 30 37 39 37 36 35 35 37 38 31 26
4 4 5 9 7 14 19 30 18 13 19 29 24 18 25 30 31 26 27 32 34 29 33 38 38 37 38 41 36 42 42 39 40 38 37 39 39 36
9 6 6 8 12 19 25 25 18 18 21 17 13 13 21 25 30 30 33 35 37 37 43 36 35 42 34 32 37 44 37 34 37 42 45 41 29 36
3 9 10 15 17 19 27 17 19 18 19 19 8 10 16 20 25 28 26 29 35 39 45 46 34 39 30 27 35 38 36 30 37 48 46 39 32 31
2 11 17 16 13 22 22 16 19 22 18 14 7 12 17 26 30 26 25 30 34 37 48 45 35 31 29 26 34 38 35 34 37 38 32 30 31 29
9 12 9 13 19 21 15 18 22 19 11 9 4 12 18 18 29 28 30 28 27 38 47 52 44 37 34 30 35 37 39 42 37 47 45 27 21 22
Wind_Direction_850mb
36 31 34 46 45 49 51 56 152 138 112 88 58 17 20 15 11 13 10 3 356 354 353 350 349 351 353 5 13 12 346 279 258 281 270 260 230 223
25 17 28 42 38 40 43 44 62 148 121 90 72 46 18 2 357 353 351 352 348 346 346 350 353 351 346 349 356 1 4 3 6 1 349 305 287 272
41 36 42 35 25 27 36 53 63 62 74 104 95 40 352 344 339 339 334 331 326 326 326 326 327 329 330 333 336 337 340 342 336 338 348 353 345 334
52 49 52 43 48 45 43 53 59 81 79 112 98 23 353 346 337 326 328 331 328 330 332 324 309 305 306 308 310 313 312 318 320 313 311 314 316 316
59 58 59 52 53 52 57 64 64 68 65 52 31 10 352 350 5 20 19 15 11 352 339 335 328 321 312 304 295 288 285 287 287 292 292 293 286 284
64 62 59 51 51 54 61 63 60 57 50 45 47 46 43 38 32 29 27 25 27 17 5 0 339 332 326 321 316 311 304 290 283 286 287 286 285 284
66 61 56 50 51 54 56 53 51 49 47 54 50 42 36 29 26 20 16 17 15 18 23 20 3 3 354 337 327 309 302 304 300 298 299 295 289 281
59 57 59 62 55 60 58 51 48 47 49 47 42 36 26 21 17 10 10 12 17 8 19 21 25 23 27 26 12 356 337 322 311 292 288 296 299 297
57 59 60 61 56 54 52 49 41 36 36 35 29 25 23 23 15 18 15 15 12 1 6 17 23 23 8 1 352 347 327 318 317 319 313 302 298 309
51 53 48 44 42 39 32 44 38 29 25 20 12 16 16 12 11 14 11 13 9 8 9 5 359 18 17 351 353 350 341 329 314 308 305 301 299 302
38 33 41 28 24 16 34 54 35 25 20 14 6 4 3 6 11 9 7 3 8 7 359 354 358 349 4 8 353 347 348 328 301 305 301 302 292 288
353 14 18 15 22 26 47 37 25 12 12 9 7 0 359 4 8 6 1 2 357 359 347 342 355 353 348 355 5 356 357 357 338 315 318 321 319 311
3 13 18 16 30 21 26 23 17 10 13 12 14 18 15 17 23 17 9 5 2 5 343 340 347 351 343 337 350 354 354 359 3 355 339 317 312 310
351 356 7 15 18 15 20 14 3 4 7 11 12 17 26 27 24 17 10 10 15 4 356 344 339 333 329 338 346 345 0 1 1 1 351 344 345 344
337 54 37 31 353 1 0 1 1 2 9 11 13 15 12 14 17 23 27 26 17 10 1 5 358 350 344 338 340 355 1 9 3 359 354 346 337 337
143 41 2 317 340 350 355 358 357 4 1 13 9 2 7 13 16 13 15 17 21 25 19 23 18 19 4 351 354 357 3 1 3 360 353 345 336 329
134 212 343 339 343 339 347 354 355 357 355 358 2 7 9 8 5 6 6 11 13 13 19 27 25 23 20 21 16 7 5 6 360 358 359 357 355 354
10 306 318 351 356 3 352 341 340 346 349 355 354 3 5 4 2 359 8 3 357 2 3 1 4 10 18 25 17 9 7 0 360 355 351 352 354 334
308 20 77 353 324 322 333 342 341 337 329 328 331 352 358 4 11 11 7 7 4 4 7 4 358 354 357 356 4 1 346 351 351 357 353 349 343 348
262 186 354 328 302 320 340 346 3 344 335 347 357 359 353 3 10 12 10 10 8 11 9 360 352 355 343 344 348 8 5 355 347 343 339 334 327 341
178 201 291 316 307 329 340 337 342 345 342 351 10 354 353 0 4 358 9 13 9 7 6 4 358 355 353 352 356 357 4 5 7 357 345 347 344 341
279 299 298 302 324 329 333 335 333 332 330 334 344 349 354 350 349 353 352 351 355 1 360 1 358 351 1 359 359 358 360 356 350 354 360 346 334 322
321 331 336 328 322 324 325 326 329 333 338 334 308 338 339 341 348 358 356 356 359 358 7 11 8 3 360 6 3 2 2 3 8 14 17 16 4 345